Location: Ladysmith
(45.4630°N, 91.1040°W)
Time: 03:12:37
(UTC-05:00)

Amateur Radio Satellites - All Passes

Search period start: 24 March 2017 02:42
Search period end: 25 March 2017 02:42
Location: Ladysmith, 45.4630°N, 91.1040°W

Satellite Date Start Highest point End Downlink Frequencies (MHz)
Time Altitude Azimuth
Oscar 19 24 Mar 02:44:07 02:49:19 82° 104° (ESE) 02:54:29 437.125/150
BEESAT 24 Mar 02:58:27 03:03:14 81° 74° (ENE) 03:08:03 436.000
O/OREOS (USA 219) 24 Mar 03:09:33 03:14:00 45° 60° (ENE) 03:18:25 437.305
AO-7 24 Mar 03:09:38 03:14:42 17° 88° (E) 03:19:44 .
ITUPSAT 1 24 Mar 03:12:40 03:17:28 76° 257° (WSW) 03:22:17 437.325
MOZHAYETS 4 24 Mar 03:41:51 03:46:27 88° 79° (E) 03:51:05
ISS 24 Mar 03:42:38 03:45:55 63° 25° (NNE) 03:49:12 437.550
KKS-1 24 Mar 03:45:38 03:49:15 25° 65° (ENE) 03:52:54 437.445
Tancredo 1 24 Mar 03:55:57 03:59:11 85° 37° (NE) 04:02:24 437.200
Gurwin Techsat 1B 24 Mar 04:14:41 04:19:18 31° 296° (WNW) 04:23:54 435.225
ITAMSAT 1 24 Mar 04:24:34 04:29:47 68° 103° (ESE) 04:34:56 435.822/435.867
Oscar 19 24 Mar 04:24:57 04:27:58 16° 302° (WNW) 04:30:59 437.125/150
CUBESAT XI-V 24 Mar 04:26:23 04:30:43 44° 70° (ENE) 04:35:06 437.345
STARS 24 Mar 04:29:43 04:33:37 31° 67° (ENE) 04:37:32 437.465
BEESAT 24 Mar 04:39:43 04:41:37 12° 272° (W) 04:43:31 436.000
O/OREOS (USA 219) 24 Mar 04:49:37 04:53:06 21° 258° (WSW) 04:56:33 437.305
AO-7 24 Mar 05:00:23 05:08:44 80° 108° (ESE) 05:17:02 .
ISS 24 Mar 05:19:31 05:22:09 22° 223° (SW) 05:24:46 437.550
KKS-1 24 Mar 05:21:30 05:25:38 37° 263° (W) 05:29:48 437.445
MOZHAYETS 4 24 Mar 05:23:32 05:24:15 10° 273° (W) 05:24:59
Tancredo 1 24 Mar 05:33:03 05:34:56 15° 226° (SW) 05:36:50 437.200
M-CUBED/EXP-1 PRIME 24 Mar 05:48:44 05:52:16 49° 66° (ENE) 05:56:07 437.505
STRAND 1 24 Mar 05:49:19 05:51:10 12° 55° (NE) 05:53:02 437.568
CUTE-I 24 Mar 05:56:38 05:57:40 11° 86° (E) 05:58:43 437.470
AO-85 24 Mar 06:04:05 06:07:48 40° 48° (NE) 06:11:34 145.980
CUBESAT XI-V 24 Mar 06:04:51 06:08:19 21° 268° (W) 06:11:47 437.345
ITAMSAT 1 24 Mar 06:05:09 06:08:42 19° 301° (WNW) 06:12:15 435.822/435.867
STARS 24 Mar 06:06:07 06:09:56 28° 264° (W) 06:13:47 437.465
LilacSat-2 24 Mar 06:06:41 06:07:40 11° 89° (E) 06:08:39 437.200
XW-2F 24 Mar 06:10:26 06:11:28 11° 89° (E) 06:12:30 145.980 - 146.000
XW-2D 24 Mar 06:32:55 06:35:52 22° 94° (E) 06:38:48 145.860 - 145.880
XW-2B 24 Mar 06:38:40 06:41:47 24° 95° (E) 06:44:51 145.730 - 145.750
DOVE 4 24 Mar 06:41:34 06:46:39 44° 97° (E) 06:51:40 437.250
NUDT-PHONESAT 24 Mar 06:42:42 06:45:37 22° 94° (E) 06:48:30 437.300
KAITUO 1B 24 Mar 06:46:16 06:49:19 24° 95° (E) 06:52:20 145.475/437.950
XW-2C 24 Mar 06:48:30 06:51:54 31° 97° (E) 06:55:15 145.795 - 145.815
BEESAT 3 24 Mar 06:51:28 06:54:18 18° 38° (NE) 06:57:08 437.485
AO-7 24 Mar 06:54:03 07:00:43 28° 309° (NW) 07:07:21 .
BEESAT 2 24 Mar 07:01:24 07:03:10 12° 31° (NNE) 07:04:56 435.950
STRAND 1 24 Mar 07:24:19 07:29:28 75° 73° (ENE) 07:34:37 437.568
M-CUBED/EXP-1 PRIME 24 Mar 07:25:10 07:27:07 14° 265° (W) 07:29:08 437.505
CUTE-I 24 Mar 07:33:11 07:38:35 79° 104° (ESE) 07:43:56 437.470
LilacSat-2 24 Mar 07:38:37 07:42:20 59° 286° (WNW) 07:46:02 437.200
XW-2A 24 Mar 07:39:01 07:41:16 16° 93° (E) 07:43:29 145.665 - 145.685
SEEDS 24 Mar 07:40:43 07:41:44 11° 88° (E) 07:42:45 437.485
CUTE 1.7 + AOD 2 24 Mar 07:40:44 07:43:31 17° 91° (E) 07:46:17 437.475
XW-2F 24 Mar 07:42:18 07:45:59 57° 287° (WNW) 07:49:39 145.980 - 146.000
AO-85 24 Mar 07:44:56 07:47:58 21° 246° (WSW) 07:51:03 145.980
YUBILEINY 24 Mar 07:53:40 08:01:52 47° 88° (E) 08:10:04 435.215
NO-84 24 Mar 07:58:20 08:00:42 24° 134° (SE) 08:03:05 435.350 FM
HO-68 24 Mar 08:01:00 08:07:30 36° 96° (E) 08:13:58 435.675
XW-2D 24 Mar 08:06:49 08:10:05 29° 291° (WNW) 08:13:20 145.860 - 145.880
XW-2B 24 Mar 08:12:47 08:15:56 26° 292° (WNW) 08:19:03 145.730 - 145.750
NUDT-PHONESAT 24 Mar 08:16:23 08:19:33 27° 291° (WNW) 08:22:42 437.300
DOVE 4 24 Mar 08:19:36 08:24:05 28° 295° (WNW) 08:28:33 437.250
KAITUO 1B 24 Mar 08:20:13 08:23:18 25° 292° (WNW) 08:26:22 145.475/437.950
XW-2C 24 Mar 08:23:07 08:25:55 20° 294° (WNW) 08:28:42 145.795 - 145.815
BEESAT 3 24 Mar 08:28:19 08:32:20 69° 237° (WSW) 08:36:19 437.485
CUBEBUG 2 24 Mar 08:29:53 08:33:41 27° 94° (E) 08:37:21 437.445
BEESAT 2 24 Mar 08:37:42 08:41:45 63° 52° (NE) 08:45:46 435.950
Oscar 11 24 Mar 08:48:24 08:49:58 12° 88° (E) 08:51:32 .
ZACube-1 24 Mar 08:49:57 08:52:31 15° 90° (E) 08:55:03 437.345
FO-29 24 Mar 08:53:47 08:59:01 20° 55° (NE) 09:04:01 435.910
STRAND 1 24 Mar 09:06:17 09:09:12 15° 271° (W) 09:12:08 437.568
AAUSAT CUBESAT 2 24 Mar 09:06:21 09:10:21 45° 99° (E) 09:14:20 437.432
XW-2A 24 Mar 09:11:06 09:14:08 30° 290° (WNW) 09:17:08 145.665 - 145.685
SEEDS 24 Mar 09:13:44 09:17:55 74° 285° (WNW) 09:22:06 437.485
CUTE-I 24 Mar 09:14:35 09:17:59 17° 302° (WNW) 09:21:22 437.470
CUTE 1.7 + AOD 2 24 Mar 09:15:33 09:19:36 47° 288° (WNW) 09:23:38 437.475
AO-73 24 Mar 09:19:09 09:22:50 28° 95° (E) 09:26:26 145.935
TIGRISAT 24 Mar 09:19:21 09:23:05 24° 65° (ENE) 09:26:48 435.000
UNISAT 6 24 Mar 09:28:15 09:32:20 30° 67° (ENE) 09:36:25 437.425
PRISM 24 Mar 09:28:49 09:32:47 55° 73° (ENE) 09:36:48 437.425
NO-84 24 Mar 09:35:28 09:38:07 34° 332° (NNW) 09:40:50 435.350 FM
UWE-3 24 Mar 09:37:57 09:42:21 85° 103° (ESE) 09:46:35 435.000/436.395/437.385
HO-68 24 Mar 09:48:34 09:55:24 50° 295° (WNW) 10:02:14 435.675
YUBILEINY 24 Mar 09:50:34 09:58:45 43° 289° (WNW) 10:06:58 435.215
CUBEBUG 2 24 Mar 10:06:20 10:10:19 32° 292° (WNW) 10:14:11 437.445
BEESAT 2 24 Mar 10:16:48 10:19:03 14° 250° (WSW) 10:21:16 435.950
Oscar 11 24 Mar 10:22:17 10:26:35 71° 286° (WNW) 10:30:52 .
ZACube-1 24 Mar 10:24:59 10:29:09 51° 288° (WNW) 10:33:12 437.345
NANOSAT C BR1 24 Mar 10:31:04 10:32:21 11° 59° (ENE) 10:33:38 145.865
EO-79 24 Mar 10:33:13 10:35:09 13° 60° (ENE) 10:37:05 145.935-145.965
FO-29 24 Mar 10:35:12 10:43:04 80° 73° (ENE) 10:50:29 435.910
PCSat 24 Mar 10:38:36 10:43:51 54° 116° (ESE) 10:49:09 145.827
AAUSAT CUBESAT 2 24 Mar 10:42:40 10:45:29 18° 296° (WNW) 10:48:19 437.432
DELFI C3 24 Mar 10:49:26 10:53:25 75° 102° (ESE) 10:57:24 145.870
TIGRISAT 24 Mar 10:55:03 10:59:31 43° 262° (W) 11:03:59 435.000
AO-73 24 Mar 10:55:23 10:59:02 28° 293° (WNW) 11:02:35 145.935
POLYITAN 1 24 Mar 10:58:51 11:02:13 23° 65° (ENE) 11:05:36 437.675
QB50P2 24 Mar 11:03:04 11:06:39 26° 67° (ENE) 11:10:15 145.880/145.840
UNISAT 6 24 Mar 11:04:45 11:08:58 32° 264° (W) 11:13:12 437.425
PRISM 24 Mar 11:06:22 11:08:26 14° 270° (W) 11:10:31 437.425
NO-84 24 Mar 11:14:40 11:16:22 14° 354° (N) 11:18:07 435.350 FM
UWE-3 24 Mar 11:16:39 11:18:05 11° 302° (WNW) 11:19:31 435.000/436.395/437.385
DUCHIFAT 1 24 Mar 11:19:08 11:22:50 30° 68° (ENE) 11:26:34 145.980
LO-87 24 Mar 11:37:17 11:40:34 30° 96° (E) 11:43:49 145.935 - 145.965
AIST 2D 24 Mar 11:37:33 11:41:06 86° 255° (WSW) 11:44:40 435.315
HO-68 24 Mar 11:39:13 11:41:29 12° 317° (NW) 11:43:46 435.675
BUGSAT 1 24 Mar 11:46:16 11:49:29 21° 64° (ENE) 11:52:43 437.445
NANOSAT C BR1 24 Mar 12:03:07 12:07:24 87° 256° (WSW) 12:11:42 145.865
EO-79 24 Mar 12:06:03 12:10:20 75° 257° (WSW) 12:14:38 145.935-145.965
VELOX 1 24 Mar 12:06:44 12:08:07 11° 88° (E) 12:09:30 145.980
ESTCUBE 1 24 Mar 12:17:12 12:21:33 45° 99° (E) 12:25:53 437.505/2401.250
Gurwin Techsat 1B 24 Mar 12:21:33 12:23:51 13° 55° (NE) 12:26:10 435.225
FO-29 24 Mar 12:22:42 12:28:40 24° 270° (W) 12:34:28 435.910
PCSat 24 Mar 12:22:50 12:27:33 29° 316° (NW) 12:32:17 145.827
Oscar 19 24 Mar 12:25:36 12:29:25 22° 61° (ENE) 12:33:16 437.125/150
DELFI C3 24 Mar 12:26:24 12:27:38 11° 299° (WNW) 12:28:51 145.870
POLYITAN 1 24 Mar 12:33:48 12:37:48 37° 262° (W) 12:41:49 437.675
QB50P2 24 Mar 12:38:31 12:42:20 31° 264° (W) 12:46:12 145.880/145.840
50 SAT 24 Mar 12:47:15 12:49:30 16° 93° (E) 12:51:45 437.505
RS-15 24 Mar 12:51:08 13:02:01 43° 108° (ESE) 13:13:13 29.354- 29.394
NO-84 24 Mar 12:52:39 12:54:51 18° 16° (NNE) 12:57:09 435.350 FM
DUCHIFAT 1 24 Mar 12:54:50 12:58:29 27° 265° (W) 13:02:10 145.980
SPROUT 24 Mar 13:07:54 13:12:01 42° 98° (E) 13:16:04 437.525
LO-87 24 Mar 13:11:07 13:13:51 20° 293° (WNW) 13:16:34 145.935 - 145.965
BUGSAT 1 24 Mar 13:20:36 13:24:35 40° 262° (W) 13:28:37 437.445
DX 1 24 Mar 13:26:14 13:30:09 31° 96° (E) 13:34:04 434.975-435.025
VELOX 1 24 Mar 13:40:38 13:45:07 79° 286° (WNW) 13:49:35 145.980
ESTCUBE 1 24 Mar 13:54:42 13:58:04 21° 296° (WNW) 14:01:25 437.505/2401.250
Gurwin Techsat 1B 24 Mar 13:57:38 14:02:56 78° 73° (ENE) 14:08:16 435.225
Oscar 19 24 Mar 14:03:20 14:08:21 56° 259° (W) 14:13:25 437.125/150
ITAMSAT 1 24 Mar 14:07:15 14:10:57 20° 60° (ENE) 14:14:40 435.822/435.867
AO-7 24 Mar 14:10:31 14:17:41 34° 55° (NE) 14:24:49 .
UKube-1 24 Mar 14:11:06 14:15:26 66° 101° (ESE) 14:19:45 .
50 SAT 24 Mar 14:19:28 14:22:40 34° 289° (WNW) 14:25:52 437.505
NO-84 24 Mar 14:29:41 14:32:50 67° 34° (NE) 14:36:15 435.350 FM
SO-50 24 Mar 14:41:18 14:43:10 12° 108° (ESE) 14:45:01 436.795
SPROUT 24 Mar 14:44:28 14:47:39 21° 296° (WNW) 14:50:49 437.525
BEESAT 24 Mar 14:57:23 15:00:31 17° 91° (E) 15:03:38 436.000
RS-15 24 Mar 15:01:55 15:13:59 68° 313° (NW) 15:26:23 29.354- 29.394
DX 1 24 Mar 15:02:31 15:06:16 28° 294° (WNW) 15:10:00 434.975-435.025
ITUPSAT 1 24 Mar 15:11:29 15:15:16 23° 94° (E) 15:19:01 437.325
VELOX 1 24 Mar 15:20:15 15:20:47 10° 303° (WNW) 15:21:20 145.980
MOZHAYETS 4 24 Mar 15:35:37 15:38:39 17° 91° (E) 15:41:41
Gurwin Techsat 1B 24 Mar 15:40:29 15:43:29 15° 271° (W) 15:46:29 435.225
ITAMSAT 1 24 Mar 15:44:44 15:49:56 65° 258° (WSW) 15:55:10 435.822/435.867
UKube-1 24 Mar 15:48:34 15:50:58 15° 300° (WNW) 15:53:22 .
AO-7 24 Mar 16:01:39 16:09:56 67° 255° (WSW) 16:18:15 .
NO-84 24 Mar 16:07:59 16:10:08 16° 230° (SW) 16:12:23 435.350 FM
SO-50 24 Mar 16:18:18 16:22:58 88° 308° (NW) 16:27:35 436.795
BEESAT 24 Mar 16:34:00 16:38:40 58° 289° (WNW) 16:43:20 436.000
ITUPSAT 1 24 Mar 16:48:46 16:53:16 43° 291° (WNW) 16:57:45 437.325
KKS-1 24 Mar 17:09:53 17:14:00 34° 97° (E) 17:18:04 437.445
MOZHAYETS 4 24 Mar 17:11:41 17:16:08 52° 288° (WNW) 17:20:33
XW-2D 24 Mar 17:16:55 17:19:17 16° 64° (ENE) 17:21:40 145.860 - 145.880
RS-15 24 Mar 17:18:30 17:29:20 34° 343° (NNW) 17:40:15 29.354- 29.394
CUTE-I 24 Mar 17:18:44 17:22:58 24° 62° (ENE) 17:27:13 437.470
XW-2B 24 Mar 17:22:31 17:25:08 18° 65° (ENE) 17:27:44 145.730 - 145.750
O/OREOS (USA 219) 24 Mar 17:24:14 17:28:17 33° 105° (ESE) 17:32:23 437.305
NUDT-PHONESAT 24 Mar 17:24:56 17:27:10 15° 64° (ENE) 17:29:24 437.300
KAITUO 1B 24 Mar 17:29:00 17:31:29 17° 65° (ENE) 17:33:57 145.475/437.950
XW-2C 24 Mar 17:32:07 17:35:07 23° 67° (ENE) 17:38:08 145.795 - 145.815
PCSat 24 Mar 17:41:42 17:45:12 17° 34° (NE) 17:48:40 145.827
DOVE 4 24 Mar 17:48:54 17:53:23 51° 71° (ENE) 17:58:12 437.250
STARS 24 Mar 17:52:28 17:56:42 42° 99° (E) 18:00:53 437.465
CUBESAT XI-V 24 Mar 17:57:25 18:02:05 82° 103° (ESE) 18:06:45 437.345
AO-7 24 Mar 18:00:48 18:04:16 13° 275° (W) 18:07:46 .
SO-50 24 Mar 18:00:53 18:04:04 18° 326° (NW) 18:07:14 436.795
YUBILEINY 24 Mar 18:00:59 18:08:03 26° 63° (ENE) 18:15:05 435.215
LilacSat-2 24 Mar 18:22:01 18:25:52 88° 82° (E) 18:29:43 437.200
XW-2F 24 Mar 18:24:47 18:28:35 88° 71° (ENE) 18:32:24 145.980 - 146.000
HO-68 24 Mar 18:32:10 18:38:27 35° 60° (ENE) 18:44:45 435.675
SEEDS 24 Mar 18:35:00 18:36:10 11° 60° (ENE) 18:37:20 437.485
CUTE 1.7 + AOD 2 24 Mar 18:35:48 18:38:31 17° 63° (ENE) 18:41:14 437.475
KKS-1 24 Mar 18:46:40 18:50:25 27° 295° (WNW) 18:54:10 437.445
XW-2D 24 Mar 18:49:31 18:53:10 43° 261° (W) 18:56:49 145.860 - 145.880
XW-2B 24 Mar 18:55:29 18:59:03 38° 262° (W) 19:02:39 145.730 - 145.750
NUDT-PHONESAT 24 Mar 18:57:09 19:00:45 44° 261° (W) 19:04:22 437.300
CUTE-I 24 Mar 18:57:26 19:02:41 53° 260° (W) 19:07:58 437.470
M-CUBED/EXP-1 PRIME 24 Mar 18:58:57 19:03:02 30° 101° (E) 19:07:08 437.505
KAITUO 1B 24 Mar 19:01:42 19:05:14 39° 262° (W) 19:08:46 145.475/437.950
UWE-3 24 Mar 19:03:22 19:05:04 12° 59° (ENE) 19:06:46 435.000/436.395/437.385
O/OREOS (USA 219) 24 Mar 19:03:44 19:07:42 29° 304° (NW) 19:11:44 437.305
XW-2C 24 Mar 19:05:50 19:09:12 29° 264° (W) 19:12:34 145.795 - 145.815
PCSat 24 Mar 19:24:09 19:29:36 70° 56° (NE) 19:35:01 145.827
DOVE 4 24 Mar 19:28:02 19:31:26 20° 270° (W) 19:34:59 437.250
STARS 24 Mar 19:29:23 19:32:47 22° 296° (WNW) 19:36:09 437.465
CUBEBUG 2 24 Mar 19:29:24 19:33:34 31° 68° (ENE) 19:37:45 437.445
STRAND 1 24 Mar 19:33:23 19:37:15 21° 92° (E) 19:41:04 437.568
RS-15 24 Mar 19:35:33 19:46:32 34° 18° (NNE) 19:57:16 29.354- 29.394
CUBESAT XI-V 24 Mar 19:36:37 19:38:49 13° 301° (WNW) 19:41:02 437.345
XW-2A 24 Mar 19:43:47 19:47:13 68° 260° (W) 19:50:40 145.665 - 145.685
Oscar 11 24 Mar 19:45:22 19:47:27 13° 61° (ENE) 19:49:32 .
ZACube-1 24 Mar 19:47:31 19:50:40 19° 63° (ENE) 19:53:46 437.345
YUBILEINY 24 Mar 19:57:07 20:05:49 77° 265° (W) 20:14:29 435.215
AAUSAT CUBESAT 2 24 Mar 19:58:23 20:02:11 39° 71° (ENE) 20:06:01 437.432
SEEDS 24 Mar 20:07:03 20:11:13 83° 258° (WSW) 20:15:24 437.485
CUTE 1.7 + AOD 2 24 Mar 20:09:52 20:13:58 51° 260° (W) 20:18:05 437.475
AO-73 24 Mar 20:16:13 20:20:12 31° 68° (ENE) 20:24:08 145.935
HO-68 24 Mar 20:18:58 20:25:55 53° 259° (W) 20:32:55 435.675
M-CUBED/EXP-1 PRIME 24 Mar 20:33:16 20:37:26 35° 297° (WNW) 20:41:39 437.505
UWE-3 24 Mar 20:36:07 20:40:49 87° 72° (ENE) 20:45:27 435.000/436.395/437.385
CUBEBUG 2 24 Mar 21:05:52 21:10:07 32° 265° (W) 21:14:23 437.445
PCSat 24 Mar 21:08:42 21:12:26 19° 254° (WSW) 21:16:09 145.827
STRAND 1 24 Mar 21:11:45 21:16:44 53° 290° (WNW) 21:21:40 437.568
Oscar 11 24 Mar 21:18:43 21:23:01 72° 258° (WSW) 21:27:21 .
ZACube-1 24 Mar 21:22:05 21:26:33 53° 260° (W) 21:30:59 437.345
AAUSAT CUBESAT 2 24 Mar 21:34:50 21:37:48 19° 268° (W) 21:40:48 437.432
DELFI C3 24 Mar 21:36:41 21:40:31 55° 73° (ENE) 21:44:22 145.870
RS-15 24 Mar 21:49:22 22:01:46 70° 48° (NE) 22:13:37 29.354- 29.394
AO-73 24 Mar 21:52:26 21:56:24 29° 265° (W) 22:00:20 145.935
YUBILEINY 24 Mar 21:56:21 22:01:03 16° 286° (WNW) 22:05:45 435.215
ISS 24 Mar 22:00:06 22:03:05 33° 141° (SE) 22:06:05 437.550
AO-85 24 Mar 22:00:06 22:04:27 62° 122° (ESE) 22:08:33 145.980
Tancredo 1 24 Mar 22:09:32 22:12:34 44° 144° (SE) 22:15:38 437.200
LO-87 24 Mar 22:16:06 22:18:38 18° 66° (ENE) 22:21:11 145.935 - 145.965
UWE-3 24 Mar 22:16:39 22:17:51 11° 273° (W) 22:19:03 435.000/436.395/437.385
BEESAT 3 24 Mar 22:23:13 22:24:00 10° 108° (ESE) 22:24:46 437.485
PRISM 24 Mar 22:42:51 22:47:00 68° 102° (ESE) 22:51:09 437.425
TIGRISAT 24 Mar 22:44:27 22:48:31 33° 96° (E) 22:52:26 435.000
UNISAT 6 24 Mar 22:53:50 22:58:08 45° 98° (E) 23:02:18 437.425
VELOX 1 24 Mar 23:05:44 23:08:08 15° 60° (ENE) 23:10:33 145.980
SO-50 24 Mar 23:07:42 23:11:27 25° 40° (NE) 23:15:11 436.795
DELFI C3 24 Mar 23:13:53 23:15:39 13° 270° (W) 23:17:26 145.870
ESTCUBE 1 24 Mar 23:18:34 23:22:55 54° 72° (ENE) 23:27:18 437.505/2401.250
FO-29 24 Mar 23:28:53 23:35:00 56° 99° (E) 23:40:25 435.910
ISS 24 Mar 23:36:19 23:39:30 46° 340° (NNW) 23:42:41 437.550
AO-85 24 Mar 23:42:00 23:45:10 20° 320° (NW) 23:48:14 145.980
Tancredo 1 24 Mar 23:45:46 23:48:46 38° 342° (NNW) 23:51:48 437.200
NANOSAT C BR1 24 Mar 23:46:57 23:48:54 13° 89° (E) 23:50:49 145.865
LO-87 24 Mar 23:48:37 23:51:52 32° 263° (W) 23:55:10 145.935 - 145.965
EO-79 24 Mar 23:49:46 23:52:16 15° 90° (E) 23:54:46 145.935-145.965
BEESAT 3 24 Mar 23:57:01 00:00:56 81° 305° (NW) 00:04:58 437.485
RS-15 25 Mar 00:02:37 00:13:33 41° 253° (WSW) 00:24:05 29.354- 29.394
SPROUT 25 Mar 00:03:04 00:07:07 42° 70° (ENE) 00:11:12 437.525
BEESAT 2 25 Mar 00:08:13 00:12:05 54° 121° (ESE) 00:16:01 435.950
POLYITAN 1 25 Mar 00:16:22 00:20:04 28° 95° (E) 00:23:43 437.675
PRISM 25 Mar 00:19:45 00:21:47 13° 300° (WNW) 00:23:48 437.425
QB50P2 25 Mar 00:20:45 00:24:39 34° 97° (E) 00:28:30 145.880/145.840
TIGRISAT 25 Mar 00:21:21 00:25:03 26° 294° (WNW) 00:28:41 435.000
DX 1 25 Mar 00:23:38 00:27:36 36° 68° (ENE) 00:31:36 434.975-435.025
UNISAT 6 25 Mar 00:31:15 00:34:31 20° 297° (WNW) 00:37:44 437.425
AIST 2D 25 Mar 00:33:42 00:37:13 86° 102° (ESE) 00:40:41 435.315
DUCHIFAT 1 25 Mar 00:35:56 00:39:54 38° 98° (E) 00:43:49 145.980
VELOX 1 25 Mar 00:39:41 00:44:03 69° 258° (WSW) 00:48:29 145.980
SO-50 25 Mar 00:47:48 00:52:12 53° 239° (WSW) 00:56:33 436.795
50 SAT 25 Mar 00:54:31 00:57:56 64° 258° (WSW) 01:01:23 437.505
ESTCUBE 1 25 Mar 00:57:11 01:00:03 17° 269° (W) 01:02:55 437.505/2401.250
BUGSAT 1 25 Mar 01:00:20 01:03:48 24° 94° (E) 01:07:12 437.445
UKube-1 25 Mar 01:07:18 01:11:35 73° 74° (ENE) 01:15:55 .
ISS 25 Mar 01:13:37 01:16:29 26° 360° (N) 01:19:20 437.550
FO-29 25 Mar 01:14:37 01:19:35 25° 302° (WNW) 01:24:10 435.910
NANOSAT C BR1 25 Mar 01:20:50 01:25:02 63° 286° (WNW) 01:29:11 145.865
Tancredo 1 25 Mar 01:22:43 01:25:28 26° 2° (N) 01:28:14 437.200
EO-79 25 Mar 01:24:13 01:28:22 53° 288° (WNW) 01:32:29 145.935-145.965
BEESAT 3 25 Mar 01:37:02 01:39:13 14° 326° (NNW) 01:41:24 437.485
SPROUT 25 Mar 01:40:04 01:43:13 20° 268° (W) 01:46:22 437.525
BEESAT 2 25 Mar 01:47:05 01:50:09 21° 320° (NW) 01:53:16 435.950
POLYITAN 1 25 Mar 01:52:09 01:55:48 28° 293° (WNW) 01:59:24 437.675
O/OREOS (USA 219) 25 Mar 01:53:30 01:56:03 14° 47° (NE) 01:58:35 437.305
QB50P2 25 Mar 01:56:51 02:00:16 24° 295° (WNW) 02:03:41 145.880/145.840
DX 1 25 Mar 02:00:22 02:03:52 24° 266° (W) 02:07:24 434.975-435.025
BEESAT 25 Mar 02:05:31 02:09:29 27° 64° (ENE) 02:13:28 436.000
Gurwin Techsat 1B 25 Mar 02:12:06 02:16:30 26° 93° (E) 02:20:53 435.225
DUCHIFAT 1 25 Mar 02:12:07 02:15:21 22° 295° (WNW) 02:18:34 145.980
Oscar 19 25 Mar 02:12:29 02:17:24 43° 98° (E) 02:22:19 437.125/150
ITUPSAT 1 25 Mar 02:20:01 02:24:21 35° 67° (ENE) 02:28:41 437.325
